This is the latest recevied weather packets stored in our database for station/object K1JO. If no packets are shown the sender has not sent any weather packets the latest 10 day(s).
| Time | Temp. | Humidity | Pressure | Rain* | Wind** | Luminosity | Snow |
|---|---|---|---|---|---|---|---|
| 1777487380 | 10.56° C | 83% | 1012.9 hPa | 0 mm | - | 298 W/m² | - |
| 1777487073 | 10° C | 84% | 1012.9 hPa | 0 mm | - | 265 W/m² | - |
| 1777486768 | 10.56° C | 82% | 1012.8 hPa | 0 mm | - | 236 W/m² | - |
| 1777486466 | 10.56° C | 83% | 1012.7 hPa | 0 mm | - | 297 W/m² | - |
| 1777486164 | 10.56° C | 83% | 1012.7 hPa | 0 mm | - | 323 W/m² | - |
| 1777485860 | 10.56° C | 83% | 1012.8 hPa | 0 mm | - | 307 W/m² | - |
| 1777485555 | 10.56° C | 83% | 1012.7 hPa | 0 mm | - | 330 W/m² | - |
| 1777485252 | 10.56° C | 82% | 1012.8 hPa | 0 mm | - | 323 W/m² | - |
| 1777484948 | 11.67° C | 81% | 1012.6 hPa | 0 mm | - | 326 W/m² | - |
| 1777484645 | 11.11° C | 81% | 1012.7 hPa | 0 mm | - | 354 W/m² | - |
| 1777484342 | 11.11° C | 80% | 1012.5 hPa | 0 mm | - | 362 W/m² | - |
| 1777484037 | 11.11° C | 80% | 1012.6 hPa | 0 mm | - | 412 W/m² | - |
| 1777483734 | 11.11° C | 79% | 1012.7 hPa | 0 mm | - | 395 W/m² | - |
| 1777483430 | 11.11° C | 80% | 1012.8 hPa | 0 mm | - | 526 W/m² | - |
| 1777483125 | 11.67° C | 80% | 1013 hPa | 0 mm | - | 409 W/m² | - |
| 1777482823 | 11.11° C | 81% | 1013.1 hPa | 0 mm | - | 391 W/m² | - |
| 1777482518 | 11.11° C | 82% | 1013.3 hPa | 0 mm | - | 360 W/m² | - |
| 1777482216 | 11.11° C | 82% | 1013.1 hPa | 0 mm | - | 375 W/m² | - |
| 1777481913 | 10.56° C | 81% | 1013.3 hPa | 0 mm | - | 363 W/m² | - |
| 1777481611 | 10.56° C | 81% | 1013.5 hPa | 0 mm | - | 346 W/m² | - |
| 1777481308 | 10.56° C | 82% | 1013.6 hPa | 0 mm | - | 321 W/m² | - |
| 1777481003 | 10.56° C | 82% | 1013.8 hPa | 0 mm | - | 295 W/m² | - |
| 1777480700 | 11.11° C | 80% | 1014.1 hPa | 0 mm | - | 307 W/m² | - |
| 1777480397 | 10.56° C | 81% | 1014.2 hPa | 0 mm | - | 294 W/m² | - |
| 1777480087 | 10° C | 82% | 1014.2 hPa | 0 mm | - | 362 W/m² | - |
* Rain latest hour (hover to see other rain measurements)
** Current wind speed in m/s (hover to see current wind gust speed)